Showing default

GLOBALSTAR M040, 25622

Orbit data source: Space-Track

GLOBALSTAR M040, 25622 is a payload satellite owned by Globalstar (US) in LEO that was launched on Tue, 09 Feb 1999 UTC via a SOYUZ-U-PVB launch vehicle from the Tyuratam Missile And Space Complex (TTMTR). Payloads include a variety of satellites, spacecraft, and rockets equipped with specific instruments for various scientific and technological missions. These include communications satellites like Starlink; space stations such as the ISS; scientific satellites like the Hubble; Earth observation satellites from companies like Planet Labs, Umbra, and HawkEye 360; GPS; miniature CubeSats for education and research; and military/defense satellites.

Loading next visibility...
GLOBALSTAR M040 details
Identifier
25622, 1999-004B
Orbit
LEO
Last TLE update20 hours ago
Origin
Flag of USGlobalstar (US / GLOB)
ManufacturerSS/Loral
MissionNon-operational Commercial Communications
Bus & MotorLS-400, LS-400 AOCS
Mass450 kg wet, 380 kg dry
Launch date (UTC)
1999-02-09 (26 years ago)
Launch vehicle
SOYUZ-U-PVB
Launch site
Tyuratam Missile And Space Complex (TTMTR)
Object type
Payload
Rocket body
Debris
Shape & HBRBox + 2 Pan, 12 m
Radar Cross Section5.587 m², Large (>1 m²)

Expand to show TLE details & history

TLE from 20 hours ago
0 GLOBALSTAR M040
1 25622U 99004B   24360.63832719 -.00000042  00000-0  34399-3 0  9991
2 25622  51.9896 225.7956 0001663  49.3583 340.0139 12.61995588193345
Epoch: 2024-12-25T15:19Z
Definitive object data (Epoch: 2024-12-25T15:19:11.469Z)
Latitude22.78194°
Longitude-79.56678°
Altitude1,414.067 km
Speed7.157 km/s
True Right ascension16h 19m 26s
True Declination22° 40' 11"
Sunlit
Object was in daylight at TLE epoch
Visualization TLE readout
Latitude-14.34377°
Longitude90.31569°
Altitude1,419.46 km
Speed7.151 km/s
Apparent Right ascension01h 44m 39s
Apparent Declination-31° 04' 46"
Sunlit
Object is in full shadow
Visualization observer readout
Local Sidereal Time10:34:27
Azimuth267.734° W
Elevation-50.771°
Doppler factor1
Orbital elements
Apogee altitude1,416.408 km
Perigee altitude1,413.816 km
Semi-major axis7,793.249 km
Eccentricity0.0001663
Inclination51.9896°
RAAN225.7956°
Arg. of periapsis49.3583°
True anomaly340.00739°
Mean anomaly340.0139°
Eccentric anomaly340.01064°
Mean motion3.15475 °/min
BSTAR0.00034399
Orbital period114.11 mins
Loading maneuver chart data...
Loading historical data...
Loading historical data...
Loading historical data...
Loading historical data...
Loading historical data...
Loading historical data...
Loading historical data...

GLOBALSTAR M040 Visibility forecast

Observer location: undefined°, undefined

Span
Click to sort rows by Start time (UTC) header in descending order
Start Az.
Max El. time (UTC)
Max El. Az.
Max El.
End time (UTC)
End Az.
12 mins2024-12-26 15:59:09.109Z166.872° S2024-12-26 16:05:09.109Z117.564° SE22.268°2024-12-26 16:11:09.109Z73.096° E
16 mins2024-12-26 17:56:09.109Z227.104° WSW2024-12-26 18:03:09.109Z195.833° SSW44.758°2024-12-26 18:12:09.109Z53.172° ENE
15 mins2024-12-26 19:57:09.109Z276° WNW2024-12-26 20:04:09.109Z343.912° N34.806°2024-12-26 20:12:09.109Z53.216° ENE
14 mins2024-12-26 21:59:09.109Z306.786° NW2024-12-26 22:06:09.109Z14.458° NNE31.991°2024-12-26 22:13:09.109Z73.789° E
15 mins2024-12-27 00:00:09.109Z311.499° NW2024-12-27 00:07:09.109Z47.387° ENE43.269°2024-12-27 00:15:09.109Z116.725° SE
13 mins2024-12-27 02:00:09.109Z290.661° WNW2024-12-27 02:06:09.109Z233.725° WSW32.202°2024-12-27 02:13:09.109Z170.665° S
|